Location: Buchloe
(48.0161°N, 10.7316°E)
Time: 05:51:20
(UTC+01:00)

ISS - Pass Details

Date: 09 December 2021
Orbit: 413 x 422 km, 51.6° (Epoch: 29 January)

Event Time Altitude Azimuth Distance (km) Brightness Sun altitude
Rises 17:04:55 0° 290° (WNW) 2,386 0.8 -6.7°
Reaches altitude 10° 17:07:11 10° 279° (W) 1,515 0.0 -7.1°
Maximum altitude 17:10:12 30° 217° (SW) 788 -1.6 -7.5°
Drops below altitude 10° 17:13:12 10° 154° (SSE) 1,502 -0.9 -8.0°
Enters shadow 17:20:52 -15° 135° (SE) 4,540 1.3 -9.1°
